[[{"header":{"parameterUnit":"m.s-1","parameterCategory":1,"la1":30.2991,"la2":30.254,"lo1":-89.0895,"lo2":-89.0444,"dy":0.0017,"dx":0.0017,"nx":28,"ny":28,"refTime":"2025-09-18T03:00:00:Z","depth":0,"parameterNumber":2,"parameterNumberName":"U-component_of_WINDS"},"data":[0,0,0,0,0,0,0,0,0,0,0,0,0,0,0,0,0,0,0,0,0,0,0,0,0,0,0,0,0,0,0,0,0,0,0,0,0,0,0,0,0,0,0,0,0,0,0,0,0,0,0,0,0,0,0,0,0,0,1.2697,1.2699,0,1.2854,1.2856,1.2857,1.2879,1.2877,1.2876,1.2875,1.3037,1.3042,1.3048,0,0,0,0,0,0,0,0,0,0,0,0,0,1.2416,1.2421,1.2697,1.2699,1.2701,1.2854,1.2856,1.2858,1.2879,1.2877,1.2876,1.2874,1.3035,1.3042,1.3049,0,0,0,0,0,0,0,0,0,0,0,0,0,1.2552,1.2423,1.2697,1.273,1.2735,1.2853,1.2856,1.2858,1.288,1.2877,1.2875,1.2873,1.3033,1.3041,1.3049,1.3146,0,0,1.3076,1.3079,0,0,0,0,0,0,0,0,1.2544,1.2562,1.2723,1.2728,1.2733,1.2845,1.2816,1.2955,1.288,1.2825,1.2875,1.2872,1.2975,1.2988,1.3022,1.3154,1.3161,1.3076,1.3081,1.3085,1.3088,0,0,0,0,0,0,0,1.2535,1.2556,1.2759,1.2726,1.2732,1.2737,1.2754,1.2843,1.291,1.2829,1.2831,1.2849,1.2977,1.3014,1.3026,1.3163,1.3076,1.3084,1.3089,1.3092,1.3378,1.3381,0,0,0,0,0,0,1.2519,1.2548,1.2754,1.2764,1.2631,1.2744,1.2763,1.2811,1.2909,1.2922,1.2851,1.285,1.3,1.3016,1.3032,1.3149,1.3085,1.3093,1.3098,1.3376,1.3379,1.3382,0,0,0,0,0,0,1.2513,1.2538,1.2748,1.2656,1.2684,1.2751,1.2805,1.2815,1.2852,1.2926,1.2938,1.2876,1.2999,1.302,1.3117,1.3155,1.3097,1.3105,1.3373,1.3377,1.338,1.3385,0,0,0,0,0,0,1.2505,1.2535,1.2573,1.2657,1.2688,1.283,1.2808,1.282,1.2867,1.2866,1.2953,1.2965,1.2999,1.3104,1.3125,1.3166,1.3111,1.337,1.3375,1.3379,1.3382,1.3389,1.3395,0,0,0,0,0,1.2495,1.2569,1.2575,1.26,1.2737,1.2832,1.285,1.2888,1.287,1.2908,1.2954,1.2962,1.3148,1.3114,1.3138,1.3181,1.3368,1.3373,1.3379,1.3379,1.3388,1.3394,0,0,0,0,0,0,1.2489,1.2581,1.2588,1.2692,1.2754,1.2836,1.2885,1.2896,1.2965,1.2962,1.3006,1.3025,1.3119,1.3161,1.3121,1.3279,1.3256,1.3267,1.3248,1.3256,1.3263,1.325,1.3118,0,0,0,0,0,1.25,1.257,1.2646,1.273,1.2761,1.2817,1.2861,1.2884,1.295,1.2977,1.3031,1.3095,1.3168,1.3215,1.3286,1.3388,1.3406,1.343,1.3436,1.3441,1.3449,1.3504,1.3514,1.34,1.34,1.34,0,0,1.2523,1.2582,1.2623,1.2731,1.2781,1.2852,1.284,1.2916,1.2968,1.2989,1.3082,1.3124,1.3199,1.3298,1.3344,1.3335,1.3485,1.3448,1.3452,1.3458,1.3511,1.3521,1.3531,1.3404,1.3403,1.3403,0,0,1.26,1.2653,1.2727,1.2777,1.2854,1.2891,1.2908,1.2988,1.3016,1.3111,1.3127,1.319,1.3315,1.3366,1.3409,1.3502,1.3511,1.3525,1.3557,1.3609,1.3618,1.3626,1.3657,1.3668,1.3533,1.3533,1.3533,0,1.2619,1.2726,1.2764,1.2838,1.2884,1.2905,1.2979,1.3027,1.3123,1.3154,1.3142,1.3296,1.3349,1.3458,1.3481,1.3516,1.3536,1.3514,1.3614,1.3622,1.363,1.366,1.3672,1.3534,1.3534,1.3534,1.3534,0,1.2744,1.2818,1.2868,1.2959,1.301,1.3085,1.3133,1.3181,1.3199,1.3237,1.3331,1.3394,1.3476,1.3505,1.3525,1.3617,1.3608,1.3605,1.3582,1.3641,1.367,1.3682,1.3535,1.3535,1.3535,1.3534,0,0,1.2822,1.2931,1.2949,1.2989,1.3074,1.3131,1.3206,1.3285,1.3324,1.3389,1.3451,1.3555,1.3551,1.3599,1.3625,1.3671,1.3737,1.3662,1.3664,1.3671,1.384,1.384,1.3853,1.3744,1.3747,1.3748,1.3833,0,1.2908,1.304,1.3075,1.3188,1.3255,1.3274,1.3339,1.3397,1.3434,1.3496,1.3537,1.3608,1.3599,1.3628,1.3675,1.3719,1.3772,1.3714,1.3801,1.3804,1.378,1.3869,1.3871,1.3947,1.3844,1.3846,1.3848,0,1.3025,1.309,1.3209,1.3282,1.3312,1.3369,1.3443,1.3503,1.3569,1.3592,1.3644,1.3664,1.3741,1.3716,1.3821,1.3781,1.3819,1.3846,1.385,1.3858,1.3828,1.3877,1.3973,1.3983,1.3866,1.3865,1.3864,0,1.3067,1.3185,1.327,1.3304,1.3393,1.3432,1.3471,1.3535,1.3579,1.3644,1.3673,1.3747,1.3787,1.3843,1.3882,1.386,1.3983,1.3962,1.4003,1.4002,1.4028,1.4025,1.4128,1.4055,1.4055,1.4055,1.4054,0,1.3157,1.3228,1.329,1.3342,1.3421,1.3461,1.3538,1.3578,1.3634,1.3694,1.3716,1.3771,1.382,1.3882,1.3913,1.3994,1.4013,1.4033,1.404,1.403,1.4027,1.4054,1.4049,1.4058,1.4057,1.4056,1.4056,0,1.3217,1.3261,1.3355,1.343,1.3451,1.3506,1.357,1.3621,1.3658,1.3732,1.3752,1.381,1.3883,1.3928,1.4022,1.4043,1.4131,1.4138,1.4108,1.4111,1.4149,1.4144,1.4272,1.429,1.4207,1.4207,1.4208,0,1.327,1.3325,1.3406,1.3446,1.3485,1.3552,1.3596,1.3637,1.3683,1.3761,1.3802,1.3876,1.3938,1.4054,1.4104,1.4175,1.4182,1.4222,1.4193,1.418,1.418,1.4175,1.4179,1.4226,1.4227,1.4227,1.4228,0,1.336,1.3378,1.3442,1.3513,1.3566,1.3624,1.3682,1.3714,1.3764,1.3815,1.3889,1.3937,1.4031,1.4104,1.4179,1.4218,1.4231,1.4237,1.4249,1.4239,1.4219,1.4227,1.4119,1.4233,1.4233,1.4232,1.4232,1.4232,1.3417,1.3465,1.3528,1.3598,1.3645,1.3698,1.3749,1.3791,1.3854,1.3933,1.3953,1.4031,1.4093,1.4195,1.4236,1.4296,1.429,1.431,1.4314,1.4318,1.4317,1.421,1.431,1.431,1.431,1.431,1.431,0,1.3505,1.3546,1.361,1.3689,1.3743,1.375,1.3814,1.3858,1.3926,1.3983,1.4043,1.4127,1.4197,1.4252,1.4324,1.4361,1.4369,1.4379,1.4376,1.4384,1.432,1.43,1.4371,1.4371,1.4371,1.4371,1.4371,1.4371,1.3557,1.3638,1.3664,1.3768,1.3809,1.3885,1.392,1.3968,1.4014,1.4106,1.4164,1.4199,1.4255,1.4331,1.4395,1.4409,1.4433,1.4442,1.4457,1.4396,1.4389,1.4382,1.4364,1.4447,1.4447,1.4515,1.4516,1.4516]},{"header":{"parameterUnit":"m.s-1","parameterCategory":1,"la1":30.2991,"la2":30.254,"lo1":-89.0895,"lo2":-89.0444,"dy":0.0017,"dx":0.0017,"nx":28,"ny":28,"refTime":"2025-09-18T03:00:00:Z","depth":0,"parameterNumber":3,"parameterNumberName":"V-component_of_WINDS"},"data":[0,0,0,0,0,0,0,0,0,0,0,0,0,0,0,0,0,0,0,0,0,0,0,0,0,0,0,0,0,0,0,0,0,0,0,0,0,0,0,0,0,0,0,0,0,0,0,0,0,0,0,0,0,0,0,0,0,0,3.5578,3.5578,0,3.5585,3.5585,3.5585,3.5544,3.5543,3.5542,3.554,3.5545,3.5546,3.5547,0,0,0,0,0,0,0,0,0,0,0,0,0,3.5522,3.5524,3.5578,3.5578,3.5578,3.5585,3.5585,3.5585,3.5544,3.5543,3.5541,3.554,3.5545,3.5546,3.5547,0,0,0,0,0,0,0,0,0,0,0,0,0,3.554,3.5524,3.5578,3.5558,3.5557,3.5585,3.5585,3.5585,3.5544,3.5543,3.5541,3.5539,3.5544,3.5546,3.5548,3.5594,0,0,3.5553,3.5554,0,0,0,0,0,0,0,0,3.5539,3.5542,3.5561,3.556,3.5558,3.5562,3.5567,3.5588,3.5545,3.5549,3.554,3.5538,3.5552,3.5553,3.5558,3.5594,3.5595,3.5553,3.5554,3.5555,3.5556,0,0,0,0,0,0,0,3.5538,3.5541,3.5581,3.5561,3.5559,3.5547,3.5548,3.5571,3.556,3.5548,3.5546,3.5547,3.5551,3.5556,3.5558,3.5595,3.5553,3.5555,3.5556,3.5557,3.5664,3.5666,0,0,0,0,0,0,3.554,3.5541,3.558,3.5581,3.5544,3.555,3.555,3.5562,3.556,3.5558,3.5549,3.5545,3.5554,3.5556,3.5558,3.5608,3.5555,3.5557,3.5558,3.5662,3.5664,3.5666,0,0,0,0,0,0,3.5539,3.5544,3.558,3.556,3.5564,3.5553,3.5566,3.5563,3.5569,3.556,3.5557,3.5557,3.5553,3.5555,3.5584,3.5608,3.5558,3.5559,3.566,3.5663,3.5665,3.5711,0,0,0,0,0,0,3.5537,3.5544,3.5563,3.5561,3.5565,3.5608,3.5568,3.5565,3.5573,3.5568,3.5567,3.5565,3.5552,3.5582,3.5586,3.5609,3.5561,3.5658,3.5661,3.5664,3.5707,3.5715,3.5722,0,0,0,0,0,3.5535,3.5576,3.5564,3.5569,3.5589,3.561,3.5612,3.5597,3.5575,3.5592,3.5586,3.5565,3.5605,3.5585,3.559,3.5614,3.5656,3.566,3.5664,3.5704,3.5714,3.5721,0,0,0,0,0,0,3.5581,3.5575,3.5562,3.5603,3.5607,3.5603,3.5625,3.5608,3.5617,3.5613,3.5592,3.5592,3.5624,3.5622,3.56,3.5656,3.5627,3.5632,3.5656,3.5664,3.5671,3.5669,3.5562,0,0,0,0,0,3.5596,3.5615,3.5609,3.5645,3.5648,3.5636,3.5645,3.5633,3.5635,3.5637,3.5633,3.5635,3.5647,3.5656,3.5668,3.5708,3.5705,3.5726,3.5733,3.5739,3.5743,3.5759,3.5767,3.5679,3.5679,3.5679,0,0,3.5626,3.5626,3.5639,3.5654,3.5656,3.5673,3.5638,3.5659,3.5671,3.564,3.5666,3.5663,3.5664,3.5698,3.5712,3.5697,3.5767,3.5744,3.5749,3.5749,3.5764,3.5772,3.578,3.5682,3.5681,3.5681,0,0,3.569,3.5694,3.5722,3.5724,3.5727,3.5718,3.5725,3.5723,3.5719,3.5746,3.5721,3.5735,3.5758,3.5759,3.5762,3.5823,3.5802,3.5827,3.5863,3.5879,3.5886,3.5892,3.5909,3.5916,3.5832,3.5832,3.5832,0,3.5727,3.5754,3.5739,3.576,3.5766,3.5739,3.5765,3.5768,3.5774,3.5778,3.5761,3.5787,3.5787,3.5818,3.5832,3.5838,3.5842,3.5826,3.5887,3.5892,3.5897,3.5914,3.5921,3.5834,3.5834,3.5834,3.5834,0,3.5797,3.5816,3.5839,3.5845,3.5853,3.5878,3.5863,3.5874,3.586,3.5853,3.5877,3.5876,3.5884,3.5891,3.5879,3.5919,3.5909,3.589,3.586,3.5909,3.5924,3.593,3.5838,3.5837,3.5837,3.5836,0,0,3.589,3.5885,3.5893,3.5893,3.5893,3.5907,3.5928,3.5937,3.5944,3.5949,3.5964,3.5983,3.5965,3.5968,3.5956,3.5971,3.6013,3.5949,3.5948,3.5957,3.6052,3.6064,3.6072,3.6001,3.6002,3.6003,3.6051,0,3.5948,3.5985,3.5971,3.6008,3.6023,3.5996,3.6014,3.6015,3.6008,3.6018,3.601,3.6022,3.5999,3.6,3.6014,3.6005,3.6031,3.6002,3.6011,3.6012,3.6008,3.608,3.6094,3.6139,3.6057,3.6058,3.6059,0,3.6022,3.6028,3.6067,3.6061,3.6066,3.6083,3.6087,3.6099,3.6097,3.6091,3.6094,3.6077,3.6095,3.6067,3.6089,3.607,3.6073,3.6069,3.607,3.6068,3.6036,3.6076,3.6153,3.6159,3.6069,3.6068,3.6067,0,3.6079,3.6098,3.6122,3.6124,3.6119,3.613,3.6128,3.6126,3.6131,3.6135,3.6137,3.6143,3.6145,3.615,3.6134,3.6115,3.6157,3.6128,3.6149,3.6149,3.6156,3.6155,3.6231,3.6165,3.6165,3.6165,3.6164,0,3.6144,3.6168,3.6147,3.6162,3.6186,3.6169,3.6193,3.6188,3.6185,3.6197,3.6175,3.6186,3.6166,3.6174,3.6162,3.618,3.6182,3.6175,3.6171,3.6175,3.6175,3.6174,3.6169,3.6166,3.6166,3.6166,3.6165,0,3.6211,3.6199,3.6223,3.6215,3.6214,3.6232,3.6224,3.6236,3.6227,3.6242,3.6244,3.623,3.6238,3.6223,3.623,3.6221,3.6245,3.6238,3.6245,3.6242,3.6262,3.6259,3.6337,3.6345,3.6276,3.6277,3.6278,0,3.6252,3.6269,3.6262,3.6268,3.6267,3.6278,3.6282,3.6265,3.627,3.6268,3.6279,3.6286,3.629,3.6303,3.6293,3.6297,3.6287,3.6314,3.6287,3.6289,3.6282,3.628,3.628,3.6318,3.6319,3.632,3.6321,0,3.6323,3.6315,3.6323,3.6327,3.6333,3.6336,3.6337,3.6343,3.6324,3.633,3.6338,3.6341,3.6347,3.6352,3.6353,3.6349,3.6331,3.633,3.6334,3.6336,3.6338,3.6333,3.6256,3.6327,3.6326,3.6326,3.6326,3.6325,3.6375,3.6387,3.6383,3.6391,3.639,3.6391,3.64,3.6392,3.6399,3.6402,3.6391,3.6401,3.6396,3.6396,3.6393,3.6399,3.6387,3.6394,3.6395,3.6396,3.6398,3.634,3.64,3.64,3.6399,3.6399,3.6399,0,3.6441,3.6437,3.6444,3.6446,3.6451,3.6435,3.6434,3.6439,3.6448,3.6446,3.6449,3.6457,3.6461,3.6451,3.6453,3.6459,3.645,3.646,3.6457,3.6456,3.6411,3.6405,3.6467,3.6467,3.6467,3.6467,3.6467,3.6467,3.6476,3.6494,3.6486,3.6502,3.6498,3.6507,3.6507,3.6507,3.6505,3.6514,3.6517,3.6511,3.6504,3.6505,3.6507,3.6504,3.6504,3.6516,3.6509,3.6466,3.646,3.6453,3.6447,3.6517,3.6517,3.6553,3.6554,3.6554]}]]